• în România
  • Lista ţărilor
  • Pe 7 zile
  • Temperatura apei
  • Hartă satelitară
  • Meteo pe hartă
  • Widget-uri
  • user-avatar
    Intrare

    Meteo pe oră la Redkiy Kust

    Astăzi, 20 Mai, Duminică

    Timp Temperatura Precipitaţii Vânt Presiune Umiditate
    00:00 +14°C° 0 mm 3 m/s 749 mmHg 92%
    01:00 +14°C° 0 mm 2 m/s 749 mmHg 92%
    02:00 +14°C° 0 mm 2 m/s 749 mmHg 93%
    03:00 +14°C° 0 mm 2 m/s 749 mmHg 93%
    04:00 +14°C° 0 mm 2 m/s 749 mmHg 91%
    05:00 +15°C° 0 mm 2 m/s 749 mmHg 90%
    06:00 +15°C° 0 mm 2 m/s 750 mmHg 89%
    07:00 +18°C° 0 mm 1 m/s 750 mmHg 84%
    08:00 +20°C° 0 mm 1 m/s 750 mmHg 78%
    09:00 +21°C° 0 mm 1 m/s 750 mmHg 72%
    10:00 +22°C° 0,2 mm 1 m/s 750 mmHg 67%
    11:00 +23°C° 0,2 mm 1 m/s 750 mmHg 62%
    12:00 +24°C° 0,2 mm 1 m/s 750 mmHg 57%
    13:00 +24°C° 0,3 mm 1 m/s 750 mmHg 57%
    14:00 +24°C° 0,3 mm 1 m/s 750 mmHg 57%
    15:00 +22°C° 0,3 mm 0 m/s 751 mmHg 56%
    16:00 +24°C° 0,4 mm 1 m/s 750 mmHg 61%
    17:00 +23°C° 0,4 mm 1 m/s 750 mmHg 66%
    18:00 +23°C° 0,4 mm 1 m/s 750 mmHg 70%
    19:00 +21°C° 0,6 mm 2 m/s 751 mmHg 76%
    20:00 +19°C° 0,6 mm 2 m/s 751 mmHg 81%
    21:00 +18°C° 0,6 mm 3 m/s 751 mmHg 86%
    22:00 +17°C° 0,2 mm 3 m/s 751 mmHg 88%
    23:00 +17°C° 0,2 mm 3 m/s 751 mmHg 90%

    Mâine, 21 Mai, Luni

    Timp Temperatura Precipitaţii Vânt Presiune Umiditate
    00:00 +15°C° 0,2 mm 4 m/s 751 mmHg 92%
    01:00 +15°C° 0,2 mm 4 m/s 752 mmHg 93%
    02:00 +15°C° 0,2 mm 4 m/s 752 mmHg 94%
    03:00 +14°C° 0,2 mm 4 m/s 752 mmHg 95%
    04:00 +14°C° 0,5 mm 4 m/s 752 mmHg 95%
    05:00 +14°C° 0,5 mm 5 m/s 752 mmHg 95%
    06:00 +14°C° 0,5 mm 5 m/s 753 mmHg 95%
    07:00 +15°C° 1,1 mm 5 m/s 753 mmHg 94%
    08:00 +15°C° 1,1 mm 5 m/s 753 mmHg 94%
    09:00 +15°C° 1,1 mm 5 m/s 754 mmHg 94%
    10:00 +16°C° 0,6 mm 5 m/s 754 mmHg 93%
    11:00 +16°C° 0,6 mm 6 m/s 754 mmHg 92%
    12:00 +17°C° 0,6 mm 6 m/s 754 mmHg 90%
    13:00 +17°C° 0,4 mm 6 m/s 754 mmHg 89%
    14:00 +17°C° 0,4 mm 6 m/s 754 mmHg 88%
    15:00 +19°C° 0,4 mm 6 m/s 755 mmHg 87%
    16:00 +19°C° 0,2 mm 6 m/s 755 mmHg 87%
    17:00 +19°C° 0,2 mm 6 m/s 755 mmHg 87%
    18:00 +19°C° 0,2 mm 5 m/s 755 mmHg 87%
    19:00 +17°C° 0 mm 6 m/s 755 mmHg 89%
    20:00 +17°C° 0 mm 6 m/s 756 mmHg 91%
    21:00 +16°C° 0 mm 6 m/s 756 mmHg 92%
    22:00 +15°C° 0,1 mm 6 m/s 756 mmHg 92%
    23:00 +15°C° 0,1 mm 6 m/s 756 mmHg 92%

    Poimâine, 22 Mai, Marţi

    Timp Temperatura Precipitaţii Vânt Presiune Umiditate
    00:00 +14°C° 0,1 mm 6 m/s 757 mmHg 92%
    01:00 +14°C° 0,4 mm 6 m/s 757 mmHg 92%
    02:00 +13°C° 0,4 mm 5 m/s 757 mmHg 91%
    03:00 +13°C° 0,4 mm 5 m/s 757 mmHg 90%
    04:00 +13°C° 0,2 mm 5 m/s 758 mmHg 89%
    05:00 +13°C° 0,2 mm 5 m/s 758 mmHg 88%
    06:00 +13°C° 0,2 mm 5 m/s 758 mmHg 87%
    07:00 +14°C° 0 mm 6 m/s 758 mmHg 85%
    08:00 +15°C° 0 mm 6 m/s 758 mmHg 83%
    09:00 +17°C° 0 mm 6 m/s 759 mmHg 80%
    10:00 +19°C° 0 mm 6 m/s 759 mmHg 78%
    11:00 +21°C° 0 mm 6 m/s 759 mmHg 75%
    12:00 +23°C° 0 mm 6 m/s 759 mmHg 72%
    13:00 +23°C° 0 mm 6 m/s 759 mmHg 71%
    14:00 +24°C° 0 mm 6 m/s 759 mmHg 70%
    15:00 +24°C° 0 mm 6 m/s 759 mmHg 69%
    16:00 +25°C° 0 mm 5 m/s 759 mmHg 72%
    17:00 +23°C° 0 mm 5 m/s 758 mmHg 75%
    18:00 +22°C° 0 mm 4 m/s 758 mmHg 79%
    19:00 +21°C° 0 mm 5 m/s 759 mmHg 77%
    20:00 +20°C° 0 mm 5 m/s 759 mmHg 75%
    21:00 +19°C° 0 mm 5 m/s 759 mmHg 73%
    22:00 +19°C° 0 mm 5 m/s 759 mmHg 70%
    23:00 +19°C° 0 mm 5 m/s 759 mmHg 67%

    23 Mai, Miercuri

    Timp Temperatura Precipitaţii Vânt Presiune Umiditate
    00:00 +17°C° 0 mm 5 m/s 759 mmHg 64%
    01:00 +17°C° 0 mm 5 m/s 759 mmHg 64%
    02:00 +18°C° 0 mm 4 m/s 759 mmHg 64%
    03:00 +17°C° 0 mm 4 m/s 759 mmHg 63%
    04:00 +17°C° 0 mm 4 m/s 759 mmHg 65%
    05:00 +17°C° 0 mm 4 m/s 759 mmHg 68%
    06:00 +16°C° 0 mm 3 m/s 758 mmHg 70%
    07:00 +17°C° 0 mm 3 m/s 759 mmHg 70%
    08:00 +18°C° 0 mm 3 m/s 759 mmHg 69%
    09:00 +19°C° 0 mm 3 m/s 759 mmHg 69%
    10:00 +20°C° 0 mm 4 m/s 758 mmHg 67%
    11:00 +21°C° 0 mm 4 m/s 758 mmHg 66%
    12:00 +22°C° 0 mm 4 m/s 758 mmHg 64%
    13:00 +23°C° 0 mm 4 m/s 758 mmHg 64%
    14:00 +25°C° 0 mm 4 m/s 757 mmHg 64%
    15:00 +26°C° 0 mm 4 m/s 757 mmHg 64%
    16:00 +26°C° 0 mm 3 m/s 757 mmHg 67%
    17:00 +25°C° 0 mm 3 m/s 756 mmHg 71%
    18:00 +25°C° 0 mm 2 m/s 756 mmHg 75%
    19:00 +24°C° 0 mm 2 m/s 756 mmHg 78%
    20:00 +23°C° 0 mm 2 m/s 756 mmHg 81%
    21:00 +20°C° 0 mm 2 m/s 756 mmHg 84%
    22:00 +20°C° 0,1 mm 3 m/s 756 mmHg 85%
    23:00 +19°C° 0,1 mm 3 m/s 755 mmHg 86%

    24 Mai, Joi

    Timp Temperatura Precipitaţii Vânt Presiune Umiditate
    00:00 +19°C° 0,1 mm 3 m/s 755 mmHg 86%
    01:00 +19°C° 0,2 mm 4 m/s 755 mmHg 84%
    02:00 +19°C° 0,2 mm 4 m/s 755 mmHg 82%
    03:00 +19°C° 0,2 mm 4 m/s 755 mmHg 80%
    04:00 +19°C° 0,3 mm 4 m/s 755 mmHg 79%
    05:00 +18°C° 0,3 mm 3 m/s 755 mmHg 79%
    06:00 +18°C° 0,3 mm 3 m/s 754 mmHg 78%
    07:00 +20°C° 0 mm 2 m/s 754 mmHg 74%
    08:00 +21°C° 0 mm 2 m/s 754 mmHg 70%
    09:00 +23°C° 0 mm 2 m/s 754 mmHg 66%
    10:00 +24°C° 0 mm 2 m/s 754 mmHg 63%
    11:00 +25°C° 0 mm 2 m/s 754 mmHg 61%
    12:00 +26°C° 0 mm 2 m/s 754 mmHg 59%
    13:00 +26°C° 0 mm 2 m/s 754 mmHg 59%
    14:00 +26°C° 0 mm 2 m/s 753 mmHg 59%
    15:00 +26°C° 0 mm 2 m/s 753 mmHg 59%
    16:00 +26°C° 0,1 mm 2 m/s 753 mmHg 62%
    17:00 +25°C° 0,1 mm 1 m/s 753 mmHg 65%
    18:00 +24°C° 0,1 mm 1 m/s 753 mmHg 69%
    19:00 +23°C° 0 mm 1 m/s 753 mmHg 69%
    20:00 +22°C° 0 mm 1 m/s 753 mmHg 70%
    21:00 +21°C° 0 mm 1 m/s 753 mmHg 71%
    22:00 +20°C° 0,2 mm 1 m/s 753 mmHg 72%
    23:00 +20°C° 0,2 mm 1 m/s 753 mmHg 73%

    25 Mai, Vineri

    Timp Temperatura Precipitaţii Vânt Presiune Umiditate
    00:00 +20°C° 0,2 mm 1 m/s 753 mmHg 74%
    01:00 +18°C° 0,1 mm 2 m/s 753 mmHg 77%
    02:00 +18°C° 0,1 mm 2 m/s 753 mmHg 81%
    03:00 +18°C° 0,1 mm 3 m/s 753 mmHg 85%
    04:00 +18°C° 0,1 mm 3 m/s 753 mmHg 86%
    05:00 +18°C° 0,1 mm 2 m/s 753 mmHg 88%
    06:00 +18°C° 0,1 mm 2 m/s 753 mmHg 90%
    07:00 +18°C° 0,4 mm 2 m/s 754 mmHg 88%
    08:00 +19°C° 0,4 mm 3 m/s 754 mmHg 86%
    09:00 +19°C° 0,4 mm 3 m/s 754 mmHg 84%
    10:00 +20°C° 0,7 mm 3 m/s 754 mmHg 83%
    11:00 +20°C° 0,7 mm 4 m/s 755 mmHg 82%
    12:00 +20°C° 0,7 mm 4 m/s 755 mmHg 82%
    13:00 +19°C° 0,4 mm 5 m/s 755 mmHg 82%
    14:00 +19°C° 0,4 mm 6 m/s 755 mmHg 83%
    15:00 +18°C° 0,4 mm 7 m/s 756 mmHg 84%
    16:00 +17°C° 0 mm 7 m/s 756 mmHg 84%
    17:00 +17°C° 0 mm 7 m/s 756 mmHg 83%
    18:00 +16°C° 0 mm 7 m/s 757 mmHg 83%
    19:00 +16°C° 0 mm 6 m/s 757 mmHg 81%
    20:00 +15°C° 0 mm 6 m/s 758 mmHg 79%
    21:00 +14°C° 0 mm 6 m/s 758 mmHg 77%
    22:00 +14°C° 0 mm 6 m/s 759 mmHg 76%
    23:00 +13°C° 0 mm 5 m/s 759 mmHg 75%
    Arată mai mult